When you browse on this site, cookies collect data to enhance your experience and personalize the content and advertising you see.
Visit our Privacy Policy to learn more. By continuing to use the site, you agree to this use of cookies and data.
  • In Deutschland
  • Länderverzeichnis
  • Für 7 Tage
  • Wassertemperatur
  • Satellitenkarten
  • Wetterkarte
  • Widgets
  • user-avatar
    Anmelden

    Stündliche Wetter Mykhailivka

    Heute, 18 November, Sonntag

    Zeit Temperatur Niederschläge Wind Luftdruck Luftfeuchtigkeit
    00:00 0°C° 0 mm 3 m/S 770 mmHg 76%
    01:00 -1°C° 0 mm 3 m/S 769 mmHg 78%
    02:00 -2°C° 0 mm 3 m/S 770 mmHg 83%
    03:00 -2°C° 0 mm 3 m/S 769 mmHg 84%
    04:00 -2°C° 0 mm 3 m/S 769 mmHg 85%
    05:00 -2°C° 0 mm 3 m/S 769 mmHg 86%
    06:00 -2°C° 0 mm 3 m/S 768 mmHg 85%
    07:00 -2°C° 0 mm 2 m/S 768 mmHg 83%
    08:00 -1°C° 0 mm 2 m/S 768 mmHg 82%
    09:00 +1°C° 0 mm 2 m/S 768 mmHg 79%
    10:00 +2°C° 0 mm 2 m/S 767 mmHg 77%
    11:00 +3°C° 0 mm 1 m/S 767 mmHg 74%
    12:00 +4°C° 0 mm 1 m/S 767 mmHg 73%
    13:00 +4°C° 0 mm 1 m/S 766 mmHg 72%
    14:00 +5°C° 0 mm 1 m/S 766 mmHg 72%
    15:00 +5°C° 0 mm 1 m/S 766 mmHg 76%
    16:00 +3°C° 0 mm 2 m/S 766 mmHg 79%
    17:00 +3°C° 0 mm 2 m/S 765 mmHg 83%
    18:00 +2°C° 0 mm 2 m/S 765 mmHg 85%
    19:00 +2°C° 0 mm 2 m/S 765 mmHg 88%
    20:00 +1°C° 0 mm 3 m/S 765 mmHg 90%
    21:00 +1°C° 0 mm 3 m/S 765 mmHg 90%
    22:00 0°C° 0 mm 4 m/S 764 mmHg 91%
    23:00 -1°C° 0 mm 4 m/S 764 mmHg 91%

    Morgen, 19 November, Montag

    Zeit Temperatur Niederschläge Wind Luftdruck Luftfeuchtigkeit
    00:00 -1°C° 0 mm 4 m/S 764 mmHg 91%
    01:00 -1°C° 0 mm 5 m/S 764 mmHg 90%
    02:00 0°C° 0 mm 5 m/S 763 mmHg 90%
    03:00 -1°C° 0 mm 6 m/S 763 mmHg 88%
    04:00 -1°C° 0 mm 6 m/S 763 mmHg 87%
    05:00 0°C° 0 mm 7 m/S 763 mmHg 85%
    06:00 0°C° 0 mm 7 m/S 762 mmHg 84%
    07:00 0°C° 0 mm 8 m/S 762 mmHg 82%
    08:00 0°C° 0 mm 8 m/S 762 mmHg 81%
    09:00 +1°C° 0.5 mm 8 m/S 762 mmHg 80%
    10:00 +1°C° 0.5 mm 9 m/S 761 mmHg 80%
    11:00 +1°C° 0.5 mm 9 m/S 761 mmHg 80%
    12:00 +1°C° 1.4 mm 10 m/S 761 mmHg 81%
    13:00 +1°C° 1.4 mm 10 m/S 760 mmHg 82%
    14:00 +2°C° 1.4 mm 11 m/S 759 mmHg 84%
    15:00 +2°C° 1.1 mm 11 m/S 759 mmHg 85%
    16:00 +2°C° 1.1 mm 11 m/S 758 mmHg 86%
    17:00 +2°C° 1.1 mm 11 m/S 757 mmHg 87%
    18:00 +2°C° 0.6 mm 11 m/S 757 mmHg 88%
    19:00 +3°C° 0.6 mm 11 m/S 757 mmHg 89%
    20:00 +3°C° 0.6 mm 11 m/S 756 mmHg 89%
    21:00 +5°C° 0.2 mm 9 m/S 756 mmHg 91%
    22:00 +5°C° 0.2 mm 8 m/S 756 mmHg 92%
    23:00 +6°C° 0.2 mm 7 m/S 756 mmHg 93%

    übermorgen, 20 November, Dienstag

    Zeit Temperatur Niederschläge Wind Luftdruck Luftfeuchtigkeit
    00:00 +7°C° 0.1 mm 6 m/S 756 mmHg 94%
    01:00 +7°C° 0.1 mm 6 m/S 756 mmHg 94%
    02:00 +7°C° 0.1 mm 6 m/S 756 mmHg 95%
    03:00 +7°C° 0.1 mm 6 m/S 756 mmHg 94%
    04:00 +5°C° 0.1 mm 7 m/S 757 mmHg 94%
    05:00 +5°C° 0.1 mm 8 m/S 757 mmHg 94%
    06:00 +4°C° 0 mm 8 m/S 758 mmHg 91%
    07:00 +4°C° 0 mm 8 m/S 758 mmHg 88%
    08:00 +2°C° 0 mm 8 m/S 759 mmHg 86%
    09:00 +2°C° 0 mm 8 m/S 760 mmHg 83%
    10:00 +3°C° 0 mm 7 m/S 760 mmHg 81%
    11:00 +3°C° 0 mm 7 m/S 761 mmHg 79%
    12:00 +3°C° 0 mm 6 m/S 761 mmHg 76%
    13:00 +3°C° 0 mm 6 m/S 762 mmHg 74%
    14:00 +3°C° 0 mm 5 m/S 762 mmHg 72%
    15:00 +3°C° 0 mm 5 m/S 762 mmHg 74%
    16:00 +2°C° 0 mm 5 m/S 763 mmHg 76%
    17:00 +2°C° 0 mm 5 m/S 763 mmHg 77%
    18:00 +1°C° 0 mm 4 m/S 763 mmHg 79%
    19:00 +1°C° 0 mm 4 m/S 763 mmHg 81%
    20:00 0°C° 0 mm 4 m/S 763 mmHg 83%
    21:00 0°C° 0 mm 4 m/S 763 mmHg 84%
    22:00 0°C° 0 mm 4 m/S 763 mmHg 85%
    23:00 0°C° 0 mm 4 m/S 763 mmHg 86%

    21 November, Mittwoch

    Zeit Temperatur Niederschläge Wind Luftdruck Luftfeuchtigkeit
    00:00 0°C° 0 mm 4 m/S 763 mmHg 85%
    01:00 0°C° 0 mm 4 m/S 763 mmHg 85%
    02:00 0°C° 0 mm 4 m/S 763 mmHg 84%
    03:00 0°C° 0.1 mm 4 m/S 763 mmHg 84%
    04:00 0°C° 0.1 mm 5 m/S 763 mmHg 84%
    05:00 0°C° 0.1 mm 5 m/S 762 mmHg 85%
    06:00 0°C° 0.2 mm 5 m/S 762 mmHg 85%
    07:00 0°C° 0.2 mm 5 m/S 762 mmHg 84%
    08:00 -1°C° 0.2 mm 6 m/S 762 mmHg 84%
    09:00 +1°C° 0.1 mm 6 m/S 762 mmHg 82%
    10:00 +1°C° 0.1 mm 6 m/S 762 mmHg 81%
    11:00 +2°C° 0.1 mm 6 m/S 762 mmHg 79%
    12:00 +2°C° 0 mm 6 m/S 762 mmHg 78%
    13:00 +2°C° 0 mm 6 m/S 761 mmHg 78%
    14:00 +2°C° 0 mm 6 m/S 761 mmHg 77%
    15:00 +2°C° 0 mm 7 m/S 761 mmHg 79%
    16:00 0°C° 0 mm 7 m/S 761 mmHg 81%
    17:00 0°C° 0 mm 7 m/S 761 mmHg 83%
    18:00 -1°C° 0 mm 8 m/S 761 mmHg 82%
    19:00 -1°C° 0 mm 8 m/S 761 mmHg 81%
    20:00 -1°C° 0 mm 8 m/S 762 mmHg 81%
    21:00 -1°C° 0 mm 8 m/S 762 mmHg 82%
    22:00 -2°C° 0 mm 8 m/S 762 mmHg 82%
    23:00 -4°C° 0 mm 8 m/S 762 mmHg 83%

    22 November, Donnerstag

    Zeit Temperatur Niederschläge Wind Luftdruck Luftfeuchtigkeit
    00:00 -3°C° 0 mm 7 m/S 762 mmHg 83%
    01:00 -3°C° 0 mm 7 m/S 763 mmHg 82%
    02:00 -4°C° 0 mm 7 m/S 763 mmHg 81%
    03:00 -4°C° 0 mm 7 m/S 763 mmHg 81%
    04:00 -5°C° 0 mm 8 m/S 763 mmHg 82%
    05:00 -5°C° 0 mm 8 m/S 763 mmHg 82%
    06:00 -5°C° 0 mm 8 m/S 764 mmHg 80%
    07:00 -4°C° 0 mm 7 m/S 764 mmHg 79%
    08:00 -4°C° 0 mm 7 m/S 764 mmHg 78%
    09:00 -3°C° 0 mm 7 m/S 765 mmHg 71%
    10:00 -2°C° 0 mm 7 m/S 765 mmHg 65%
    11:00 -1°C° 0 mm 7 m/S 765 mmHg 59%
    12:00 -1°C° 0 mm 7 m/S 765 mmHg 58%
    13:00 +1°C° 0 mm 6 m/S 765 mmHg 57%
    14:00 +1°C° 0 mm 6 m/S 764 mmHg 57%
    15:00 -1°C° 0 mm 6 m/S 765 mmHg 61%
    16:00 -2°C° 0 mm 6 m/S 765 mmHg 66%
    17:00 -3°C° 0 mm 6 m/S 765 mmHg 70%
    18:00 -3°C° 0 mm 6 m/S 766 mmHg 75%
    19:00 -4°C° 0 mm 6 m/S 766 mmHg 79%
    20:00 -5°C° 0 mm 6 m/S 766 mmHg 84%
    21:00 -5°C° 0 mm 6 m/S 767 mmHg 84%
    22:00 -5°C° 0 mm 6 m/S 767 mmHg 84%
    23:00 -5°C° 0 mm 5 m/S 767 mmHg 84%

    23 November, Freitag

    Zeit Temperatur Niederschläge Wind Luftdruck Luftfeuchtigkeit
    00:00 -5°C° 0 mm 5 m/S 767 mmHg 83%
    01:00 -5°C° 0 mm 5 m/S 767 mmHg 83%
    02:00 -6°C° 0 mm 5 m/S 768 mmHg 82%
    03:00 -6°C° 0 mm 5 m/S 768 mmHg 82%
    04:00 -6°C° 0 mm 5 m/S 768 mmHg 83%
    05:00 -6°C° 0 mm 5 m/S 768 mmHg 83%
    06:00 -6°C° 0 mm 5 m/S 769 mmHg 82%
    07:00 -6°C° 0 mm 5 m/S 769 mmHg 81%
    08:00 -5°C° 0 mm 5 m/S 769 mmHg 81%
    09:00 -4°C° 0 mm 5 m/S 770 mmHg 75%
    10:00 -2°C° 0 mm 5 m/S 770 mmHg 70%
    11:00 -1°C° 0 mm 5 m/S 770 mmHg 65%
    12:00 0°C° 0 mm 5 m/S 770 mmHg 64%
    13:00 0°C° 0 mm 5 m/S 770 mmHg 62%
    14:00 0°C° 0 mm 5 m/S 770 mmHg 61%
    15:00 -1°C° 0 mm 5 m/S 770 mmHg 67%
    16:00 -2°C° 0 mm 4 m/S 770 mmHg 72%
    17:00 -3°C° 0 mm 4 m/S 770 mmHg 78%
    18:00 -3°C° 0 mm 4 m/S 770 mmHg 80%
    19:00 -3°C° 0 mm 4 m/S 771 mmHg 81%
    20:00 -4°C° 0 mm 4 m/S 771 mmHg 83%
    21:00 -4°C° 0 mm 4 m/S 771 mmHg 83%
    22:00 -4°C° 0 mm 4 m/S 771 mmHg 84%
    23:00 -4°C° 0 mm 4 m/S 771 mmHg 84%
    Mehr zeigen